Regional Weather Roundup
Issued by NWS

Home | Current Version | Previous Version | Text Only | Print | Product List | Glossary On
Versions: 1 2 3 4 5 6 7 8 9 10 11 12 13 14 15 16 17 18 19 20 21 22 23 24 25 26 27 28 29 30 31 32 33 34 35 36 37 38 39 40 41 42 43 44 45 46 47 48 49 50
000
ASUS43 KMPX 221601
RWRMN
WEATHER ROUNDUP FOR MINNESOTA
NATIONAL WEATHER SERVICE TWIN CITIES/CHANHASSEN MN
1100 AM CDT FRI AUG 22 2014


NOTE: "FAIR" INDICATES FEW OR NO CLOUDS BELOW 12,000 FEET WITH NO
SIGNIFICANT WEATHER AND/OR OBSTRUCTIONS TO VISIBILITY. N/A MEANS
CURRENT SKY AND/OR WEATHER CONDITIONS ARE NOT AVAILABLE.

MNZ060>063-068>070-221700-
   Twin Cities Metro

CITY           SKY/WX    TMP DP  RH WIND       PRES   REMARKS
TWIN CITIES    CLOUDY    73  68  84 N6        29.96R
ST PAUL        CLOUDY    71  67  87 N5        29.96R
CRYSTAL        CLOUDY    73  67  81 N7        29.95R
BLAINE         CLOUDY    72  70  94 NW3         N/A
LAKEVILLE      CLOUDY    73  68  83 N6        29.96R
EDEN PRAIRIE   CLOUDY    73  68  84 N5        29.95S
SOUTH ST PAUL  CLOUDY    72  67  86 NW5       29.95S
LAKE ELMO      CLOUDY    72  68  88 NW5       29.97R
$$
MNZ001>005-007-008-013>017-022>024-027-028-221700-
   Northwest Minnesota

CITY           SKY/WX    TMP DP  RH WIND       PRES   REMARKS
BEMIDJI        PTSUNNY   71  65  80 CALM      29.99S
HALLOCK        CLOUDY    66  64  94 N14       29.99S
ROSEAU         PTSUNNY   70  64  83 NE6       29.99R
WARROAD        CLOUDY    70  64  83 NE6       30.00R
THIEF RVR FALL CLOUDY    68  66  94 N5        29.98R
CROOKSTON      CLOUDY    68  66  94 N10       29.99R
FOSSTON        HVY RAIN  72  70  94 CALM      29.99R
DETROIT LAKES  MOSUNNY   75  66  73 CALM      30.00R
MOORHEAD       CLOUDY    70  70 100 NW3       29.99S FOG
PARK RAPIDS    CLOUDY    73  66  78 N3        29.99S
MAHNOMEN       LGT RAIN  70  68  95 W3        29.98R
$$
MNZ006-009>011-018-025>026-221700-
   North Central Minnesota

CITY           SKY/WX    TMP DP  RH WIND       PRES   REMARKS
BAUDETTE       CLOUDY    67  64  90 E5        29.99S
FLAG ISLAND    PTSUNNY   70  64  83 CALM      29.98S
INTL FALLS     CLOUDY    68  63  84 E6        29.99S
WASKISH        MOSUNNY   72  68  88 CALM      29.99S
BIG FORK       PTSUNNY   70  64  83 NE5       30.00S
LONGVILLE      CLOUDY    70  66  88 CALM      29.99R
GRAND RAPIDS   CLOUDY    68  63  83 N3        29.99S
CRANE LAKE     CLOUDY    64  63  94 CALM      30.01S
ORR            CLOUDY    68  61  77 CALM      29.98R
COOK           CLOUDY    66  63  88 CALM      30.01R
WALKER         CLOUDY    69  64  85 CALM      30.00R
$$
MNZ012-019>021-037-221700-
   Northeast Minnesota

CITY           SKY/WX    TMP DP  RH WIND       PRES   REMARKS
DULUTH         FOG       64  62  93 SE5       29.99R VSB 1/4
ELY            CLOUDY    64  63  94 CALM      30.00R
HIBBING        CLOUDY    70  63  78 CALM      30.00R
EVELETH        CLOUDY    64  63  94 CALM      30.00S
DULUTH HARBOR  FOG       61  61 100 NE10      29.99S VSB 3/4
TWO HARBORS    CLOUDY    64  59  82 E6        29.97R HAZE
SILVER BAY     CLOUDY    63  63 100 NE7       29.98R
GRAND MARAIS     N/A     62  59  90 E8        29.98S
G MARAIS ARPRT CLOUDY    63  59  88 NE8       30.03R FOG
$$
MNZ029>031-032-039>041-046>048-054>057-064-221700-
   West Central Minnesota

CITY           SKY/WX    TMP DP  RH WIND       PRES   REMARKS
FERGUS FALLS   PTSUNNY   73  70  88 W5        29.97F
WHEATON          N/A     70  68  94 CALM      30.00S
MORRIS         SUNNY     75  70  83 CALM      29.97R
ALEXANDRIA     MOSUNNY   78  68  71 NE7       30.00R
ELBOW LAKE     CLOUDY    75  69  80 N6        29.98S
WADENA         CLOUDY    72  66  83 CALM      29.99R
GLENWOOD       MOSUNNY   77  68  73 N3        29.99R
APPLETON       PTSUNNY   79  70  73 NW3       29.96S
BENSON         PTSUNNY   79  70  73 N5        29.97S
ORTONVILLE     CLOUDY    72  70  94 N3        29.99R FOG
MADISON        SUNNY     73  72  94 CALM      29.98R
WILLMAR        FAIR      75  68  78 CALM      29.99S
$$
MNZ033>034-036-042>043-049>051-058-059-221700-
   Central Minnesota

CITY           SKY/WX    TMP DP  RH WIND       PRES   REMARKS
ST CLOUD       CLOUDY    74  67  78 NW7       29.98R
SAUK CENTRE    PTSUNNY   75  67  76 E5        29.98S
PAYNESVILLE    CLOUDY    73  66  80 N5        29.98S
AITKIN         CLOUDY    68  63  83 CALM      29.98R HAZE
PINE RIVER     CLOUDY    70  64  83 CALM      30.02R
BRAINERD       CLOUDY    67  64  90 CALM      29.99R
STAPLES        CLOUDY    70  66  88 CALM      29.99R
LONG PRAIRIE   CLOUDY    70  64  83 NE3       30.00R
LITTLE FALLS   CLOUDY    66  63  88 CALM      29.99R
LITCHFIELD     CLOUDY    75  72  88 N3        29.97S
BUFFALO        CLOUDY    74  67  79 N3        29.97F
MAPLE LAKE     CLOUDY    74  70  87 NW3       29.98S
$$
MNZ037-044-045-052-053-221700-
   East Central Minnesota

CITY           SKY/WX    TMP DP  RH WIND       PRES   REMARKS
PRINCETON      CLOUDY    73  66  78 N7        29.97S
MORA           CLOUDY    64  63  94 N3        29.99S
CAMBRIDGE      CLOUDY    70  61  73 CALM      29.95S
RUSH CITY      CLOUDY    66  64  91 N5        29.97R
MOOSE LAKE     CLOUDY    63  61  94 CALM      29.98R FOG
HINCKLEY       CLOUDY    64  64 100 N6        29.98R FOG
CLOQUET        FOG       63  61  94 CALM      30.00R VSB 1/4
MCGREGOR       CLOUDY    64  64 100 CALM      29.99S
$$
MNZ071>073-080-081-089-090-097-098-221700-
   Southwest Minnesota

CITY           SKY/WX    TMP DP  RH WIND       PRES   REMARKS
MONTEVIDEO     CLOUDY    79  73  83 CALM      29.98S
GRANITE FALLS  PTSUNNY   77  71  83 N6        29.98S
CANBY          CLOUDY    72  69  92 N5        29.99S FOG
MARSHALL       CLOUDY    72  70  94 E5        29.98R
REDWOOD FALLS  PTSUNNY   78  70  76 NE7       29.97R
OLIVIA         CLOUDY    73  68  83 N3        29.97S
PIPESTONE      MOSUNNY   75  70  83 E8        30.00R
WINDOM         PTSUNNY   75  70  83 N5        29.98F
WORTHINGTON    MOSUNNY   77  18  10 N7        30.00S
JACKSON        CLOUDY    72  70  94 N8        29.99R
TRACY          CLOUDY    74  71  91 NE5       30.00R
SLAYTON        CLOUDY    74  71  89 CALM      30.01S
$$
MNZ065>067-074>077-082>085-091>093-221700-
   South Central Minnesota

CITY           SKY/WX    TMP DP  RH WIND       PRES   REMARKS
MANKATO        CLOUDY    75  66  73 N9        29.97R
NEW ULM        SUNNY     73  72  94 N3        29.97R
ST JAMES       PTSUNNY   81  70  69 N7        29.98R
FAIRMONT       CLOUDY    75  68  78 N7        29.98R
GLENCOE        CLOUDY    74  67  79 NE5       29.96S
FARIBAULT      CLOUDY    79  64  61 CALM      29.97R
OWATONNA       MOSUNNY   73  68  83 N3        29.98R HAZE
WASECA         CLOUDY    73  64  73 N6        29.99R
ALBERT LEA     MOSUNNY   79  72  78 NE3       29.96S
$$
MNZ078>079-086>088-094>096-221700-
   Southeast Minnesota

CITY           SKY/WX    TMP DP  RH WIND       PRES   REMARKS
ROCHESTER      MOSUNNY   78  69  73 VRB3      29.98R
RED WING       PTSUNNY   79  70  73 NW5       29.93S
STANTON        CLOUDY    77  69  77 N5        29.95R
DODGE CENTER   PTSUNNY   75  70  83 CALM      29.97R
WINONA         CLOUDY    79  70  73 CALM      29.94R
AUSTIN         MOSUNNY   79  70  73 E6        29.96S
PRESTON        CLOUDY    75  73  93 CALM      29.97S
$$
ABBREVIATIONS USED IN REMARKS
   TC - TEMPERATURES IN CELSIUS
  WCI - WIND CHILL INDEX
   HX - HEAT INDEX
  VSB - VISIBILITY
$$


USA.gov is the U.S. government's official web portal to all federal, state and local government web resources and services.